STARLINK-11268 [DTC]

Last updated on Mon Oct 14 2024 00:02:03 GMT+0000 (Coordinated Universal Time)

1 61055U 24164F 24287.50613125 -.00005802 00000+0 -31468-4 0 9992 2 61055 53.1542 316.2341 0001787 63.0240 297.0963 15.76724727 4971
UTC large
Height (km)
Speed (km/s)
/
Latitude / Longitude
Inclination (degrees)
Orbital Period (minutes)
Azimuth
Elevation
Range (km)
Doppler Factor

Next 0 passes for location: London (51.5072 / 0.1276)

Sorry there are no passes over London.